[[{"header":{"parameterUnit":"m.s-1","parameterCategory":1,"la1":30.2991,"la2":30.254,"lo1":-89.0895,"lo2":-89.0444,"dy":0.0017,"dx":0.0017,"nx":28,"ny":28,"refTime":"2025-03-31T09:00:00:Z","depth":0,"parameterNumber":2,"parameterNumberName":"U-component_of_WINDS"},"data":[0,0,0,0,0,0,0,0,0,0,0,0,0,0,0,0,0,0,0,0,0,0,0,0,0,0,0,0,0,0,0,0,0,0,0,0,0,0,0,0,0,0,0,0,0,0,0,0,0,0,0,0,0,0,0,0,0,0,-5.5188,-5.5189,0,-5.5302,-5.5304,-5.5305,-5.525,-5.5247,-5.5244,-5.5241,-5.5356,-5.5362,-5.5367,0,0,0,0,0,0,0,0,0,0,0,0,0,-5.4922,-5.4927,-5.5188,-5.519,-5.5191,-5.5302,-5.5304,-5.5305,-5.525,-5.5247,-5.5243,-5.524,-5.5354,-5.5361,-5.5368,0,0,0,0,0,0,0,0,0,0,0,0,0,-5.5037,-5.4929,-5.5188,-5.5177,-5.5177,-5.5302,-5.5304,-5.5306,-5.5251,-5.5247,-5.5242,-5.5238,-5.5352,-5.536,-5.5369,-5.551,0,0,-5.5395,-5.5399,0,0,0,0,0,0,0,0,-5.5031,-5.5047,-5.5177,-5.5178,-5.5178,-5.5257,-5.5252,-5.5374,-5.5252,-5.5223,-5.5241,-5.5236,-5.5327,-5.5337,-5.5368,-5.5516,-5.552,-5.5396,-5.5401,-5.5405,-5.5408,0,0,0,0,0,0,0,-5.5023,-5.5042,-5.5233,-5.5179,-5.518,-5.5166,-5.5178,-5.5275,-5.5298,-5.5225,-5.5221,-5.5236,-5.5326,-5.536,-5.537,-5.5522,-5.5396,-5.5404,-5.5409,-5.5412,-5.5792,-5.5796,0,0,0,0,0,0,-5.5015,-5.5035,-5.523,-5.5237,-5.5092,-5.5175,-5.5187,-5.5236,-5.5297,-5.5302,-5.5239,-5.5233,-5.5347,-5.536,-5.5374,-5.5543,-5.5405,-5.5413,-5.5418,-5.5787,-5.5793,-5.5798,0,0,0,0,0,0,-5.501,-5.5033,-5.5225,-5.5135,-5.5159,-5.5184,-5.5239,-5.5241,-5.5275,-5.5308,-5.5311,-5.527,-5.5344,-5.5362,-5.5477,-5.5546,-5.5417,-5.5425,-5.5781,-5.5789,-5.5795,-5.5881,0,0,0,0,0,0,-5.5002,-5.5031,-5.5085,-5.5137,-5.5164,-5.5326,-5.5244,-5.5246,-5.529,-5.5282,-5.5337,-5.5342,-5.5342,-5.5464,-5.5486,-5.5556,-5.5432,-5.5775,-5.5784,-5.5793,-5.5872,-5.5891,-5.5907,0,0,0,0,0,-5.4993,-5.5104,-5.5088,-5.5112,-5.5231,-5.533,-5.5345,-5.5344,-5.5296,-5.535,-5.5372,-5.534,-5.5536,-5.5477,-5.55,-5.5574,-5.577,-5.5782,-5.5792,-5.5865,-5.5887,-5.5906,0,0,0,0,0,0,-5.5059,-5.5111,-5.5093,-5.5225,-5.5274,-5.5321,-5.5388,-5.5368,-5.5431,-5.5421,-5.5417,-5.5429,-5.5548,-5.5573,-5.5506,-5.5714,-5.5646,-5.5662,-5.5693,-5.5714,-5.5731,-5.5721,-5.5439,0,0,0,0,0,-5.5089,-5.5166,-5.5207,-5.5319,-5.5344,-5.5363,-5.5406,-5.5401,-5.5451,-5.5471,-5.5501,-5.555,-5.5623,-5.567,-5.5739,-5.5877,-5.5888,-5.594,-5.5957,-5.5971,-5.5983,-5.6058,-5.6081,-5.5834,-5.5834,-5.5834,0,0,-5.5151,-5.5189,-5.5237,-5.5333,-5.537,-5.5449,-5.538,-5.5466,-5.5524,-5.5484,-5.5594,-5.5618,-5.5673,-5.58,-5.5857,-5.5824,-5.6055,-5.5985,-5.5995,-5.6001,-5.6071,-5.6095,-5.6116,-5.5841,-5.584,-5.5839,0,0,-5.5304,-5.5342,-5.5439,-5.5478,-5.5536,-5.5548,-5.5572,-5.5623,-5.5637,-5.5748,-5.572,-5.5789,-5.5915,-5.5955,-5.5992,-5.6164,-5.6137,-5.6187,-5.6274,-5.6346,-5.6366,-5.6383,-5.6443,-5.6464,-5.62,-5.62,-5.6201,0,-5.5374,-5.5491,-5.5491,-5.558,-5.5622,-5.5592,-5.569,-5.5728,-5.5805,-5.5835,-5.5798,-5.5955,-5.599,-5.6126,-5.6168,-5.62,-5.6225,-5.6178,-5.6363,-5.6381,-5.6396,-5.6453,-5.6476,-5.6206,-5.6205,-5.6205,-5.6204,0,-5.5574,-5.5656,-5.5728,-5.5804,-5.5855,-5.5948,-5.5962,-5.6014,-5.6006,-5.6022,-5.6136,-5.6178,-5.6254,-5.6287,-5.6279,-5.6422,-5.6399,-5.6363,-5.6294,-5.6425,-5.6479,-5.65,-5.6214,-5.6212,-5.621,-5.6209,0,0,-5.5767,-5.5845,-5.5871,-5.5905,-5.5968,-5.6031,-5.6124,-5.62,-5.6244,-5.63,-5.6376,-5.6485,-5.6452,-5.6494,-5.6491,-5.6555,-5.6687,-5.6511,-5.6512,-5.654,-5.6846,-5.687,-5.6896,-5.6672,-5.6676,-5.6679,-5.684,0,-5.5923,-5.6084,-5.6088,-5.6236,-5.6312,-5.6285,-5.6366,-5.6413,-5.6432,-5.6499,-5.6519,-5.6595,-5.6547,-5.6572,-5.6635,-5.6658,-5.6748,-5.6647,-5.6741,-5.6744,-5.6725,-5.6924,-5.695,-5.71,-5.6861,-5.6865,-5.6868,0,-5.6125,-5.6188,-5.6344,-5.6397,-5.6429,-5.6501,-5.6571,-5.6636,-5.669,-5.6699,-5.6748,-5.6736,-5.683,-5.6761,-5.689,-5.6821,-5.6861,-5.6878,-5.6884,-5.689,-5.6811,-5.6932,-5.7148,-5.7169,-5.6901,-5.6898,-5.6896,0,-5.6248,-5.6372,-5.6481,-5.6512,-5.6577,-5.6628,-5.6658,-5.6708,-5.6753,-5.6816,-5.6845,-5.6917,-5.6956,-5.7012,-5.7021,-5.697,-5.715,-5.7082,-5.7159,-5.7159,-5.7194,-5.7191,-5.7416,-5.7226,-5.7225,-5.7225,-5.7224,0,-5.642,-5.6515,-5.6537,-5.6604,-5.6711,-5.6715,-5.6821,-5.6846,-5.6891,-5.6962,-5.6945,-5.7012,-5.702,-5.709,-5.7097,-5.7202,-5.7221,-5.723,-5.723,-5.723,-5.7228,-5.7252,-5.7241,-5.7231,-5.7229,-5.7228,-5.7227,0,-5.6573,-5.6592,-5.6709,-5.6762,-5.6778,-5.6854,-5.6899,-5.6963,-5.6982,-5.7072,-5.7093,-5.7121,-5.7202,-5.7218,-5.7313,-5.7318,-5.7443,-5.7434,-5.7424,-5.7422,-5.7497,-5.7489,-5.7743,-5.7776,-5.7567,-5.7569,-5.757,0,-5.668,-5.6753,-5.6815,-5.6862,-5.6894,-5.697,-5.7017,-5.7025,-5.7075,-5.7143,-5.7198,-5.7278,-5.7341,-5.7472,-5.7501,-5.7574,-5.7565,-5.7649,-5.7575,-5.7573,-5.7563,-5.7557,-5.7564,-5.7662,-5.7664,-5.7666,-5.7668,0,-5.6866,-5.6873,-5.6941,-5.7015,-5.7072,-5.7129,-5.7184,-5.7223,-5.7239,-5.7296,-5.7379,-5.7429,-5.7527,-5.7606,-5.7679,-5.7709,-5.7691,-5.7691,-5.7712,-5.7711,-5.7701,-5.7705,-5.746,-5.7684,-5.7683,-5.7681,-5.768,-5.768,-5.6998,-5.7061,-5.7115,-5.7193,-5.7236,-5.7288,-5.735,-5.7377,-5.7447,-5.7528,-5.7529,-5.762,-5.7673,-5.777,-5.7805,-5.7876,-5.7849,-5.788,-5.7887,-5.7894,-5.79,-5.7693,-5.7889,-5.7889,-5.7889,-5.7888,-5.7888,0,-5.7181,-5.7215,-5.7287,-5.7365,-5.7426,-5.7406,-5.7466,-5.7518,-5.7599,-5.765,-5.7714,-5.781,-5.7887,-5.7923,-5.7999,-5.8049,-5.8042,-5.8068,-5.8062,-5.8069,-5.7921,-5.7894,-5.8072,-5.8072,-5.8072,-5.8072,-5.8072,-5.8072,-5.7283,-5.739,-5.7403,-5.7531,-5.7565,-5.7654,-5.769,-5.7738,-5.7779,-5.7887,-5.7951,-5.7975,-5.802,-5.81,-5.8169,-5.8178,-5.8205,-5.8235,-5.8239,-5.8099,-5.808,-5.8062,-5.8036,-5.8242,-5.8242,-5.8382,-5.8383,-5.8384]},{"header":{"parameterUnit":"m.s-1","parameterCategory":1,"la1":30.2991,"la2":30.254,"lo1":-89.0895,"lo2":-89.0444,"dy":0.0017,"dx":0.0017,"nx":28,"ny":28,"refTime":"2025-03-31T09:00:00:Z","depth":0,"parameterNumber":3,"parameterNumberName":"V-component_of_WINDS"},"data":[0,0,0,0,0,0,0,0,0,0,0,0,0,0,0,0,0,0,0,0,0,0,0,0,0,0,0,0,0,0,0,0,0,0,0,0,0,0,0,0,0,0,0,0,0,0,0,0,0,0,0,0,0,0,0,0,0,0,2.8754,2.8755,0,2.8828,2.8829,2.883,2.8877,2.8877,2.8877,2.8877,2.8947,2.8949,2.8951,0,0,0,0,0,0,0,0,0,0,0,0,0,2.8649,2.865,2.8754,2.8755,2.8756,2.8828,2.8829,2.883,2.8877,2.8877,2.8877,2.8878,2.8947,2.8949,2.8951,0,0,0,0,0,0,0,0,0,0,0,0,0,2.8705,2.8651,2.8754,2.8788,2.8792,2.8828,2.8829,2.883,2.8876,2.8877,2.8877,2.8878,2.8946,2.8949,2.8951,2.8957,0,0,2.8958,2.8959,0,0,0,0,0,0,0,0,2.8702,2.8709,2.8782,2.8786,2.879,2.8844,2.8818,2.8873,2.8876,2.8844,2.8877,2.8878,2.8912,2.8917,2.893,2.896,2.8963,2.8959,2.896,2.8961,2.8962,0,0,0,0,0,0,0,2.8698,2.8706,2.8783,2.8783,2.8788,2.8798,2.8807,2.8828,2.8875,2.8847,2.8851,2.8859,2.8914,2.8928,2.8932,2.8964,2.8958,2.8961,2.8962,2.8963,2.9005,2.9004,0,0,0,0,0,0,2.869,2.8703,2.8781,2.8785,2.8746,2.88,2.8809,2.8826,2.8875,2.8883,2.8859,2.8861,2.8923,2.8929,2.8935,2.8947,2.8961,2.8963,2.8965,2.9005,2.9005,2.9004,0,0,0,0,0,0,2.8687,2.8696,2.8778,2.8745,2.8756,2.8801,2.8819,2.8827,2.8841,2.8883,2.8891,2.8864,2.8924,2.8931,2.8952,2.895,2.8964,2.8966,2.9005,2.9005,2.9004,2.8969,0,0,0,0,0,0,2.8684,2.8695,2.8699,2.8745,2.8758,2.8795,2.8819,2.8828,2.8845,2.8849,2.8891,2.8898,2.8925,2.8948,2.8954,2.8953,2.8968,2.9006,2.9005,2.9005,2.897,2.8967,2.8964,0,0,0,0,0,2.868,2.8684,2.8699,2.8708,2.8764,2.8795,2.8802,2.8835,2.8845,2.8849,2.8876,2.8897,2.8949,2.895,2.8957,2.8957,2.9006,2.9005,2.9005,2.8972,2.8968,2.8965,0,0,0,0,0,0,2.8634,2.8691,2.8707,2.8727,2.8756,2.8803,2.8808,2.8829,2.8854,2.8857,2.8894,2.8903,2.892,2.894,2.8941,2.8966,2.898,2.898,2.8952,2.8949,2.8946,2.8941,2.897,0,0,0,0,0,2.8626,2.8648,2.8696,2.8709,2.8723,2.8763,2.8777,2.8801,2.8831,2.8843,2.8872,2.89,2.8923,2.8937,2.896,2.8973,2.8983,2.8977,2.8974,2.8971,2.8971,2.8981,2.8979,2.9002,2.9002,2.9002,0,0,2.861,2.8644,2.8655,2.87,2.8726,2.8747,2.8773,2.8793,2.8809,2.8846,2.8868,2.889,2.8923,2.8941,2.895,2.8958,2.8967,2.897,2.8968,2.8969,2.898,2.8978,2.8976,2.9001,2.9001,2.9002,0,0,2.8592,2.862,2.8634,2.866,2.8699,2.8726,2.8729,2.8773,2.879,2.8813,2.8842,2.886,2.8898,2.8921,2.8938,2.893,2.895,2.8936,2.892,2.8929,2.8928,2.8926,2.8924,2.8923,2.8936,2.8936,2.8936,0,2.8567,2.8601,2.8638,2.8659,2.8677,2.8714,2.8729,2.8751,2.8794,2.8805,2.8814,2.8865,2.8889,2.8913,2.8912,2.8924,2.8928,2.8932,2.8925,2.8924,2.8923,2.8922,2.8921,2.8934,2.8934,2.8934,2.8935,0,2.8569,2.8592,2.8599,2.8643,2.8663,2.8679,2.8718,2.8733,2.8754,2.878,2.8803,2.8835,2.8866,2.8873,2.8893,2.89,2.8904,2.8918,2.8933,2.8919,2.8918,2.8918,2.8931,2.8932,2.8933,2.8933,0,0,2.8523,2.8589,2.8591,2.8612,2.8658,2.8676,2.8694,2.8727,2.874,2.8768,2.8784,2.8817,2.8831,2.885,2.8873,2.888,2.8874,2.8894,2.8896,2.889,2.8884,2.8874,2.8872,2.8887,2.8887,2.8887,2.8882,0,2.8513,2.855,2.8585,2.8609,2.8631,2.8667,2.8683,2.8712,2.8736,2.8758,2.8784,2.8807,2.8824,2.8835,2.8845,2.8872,2.8873,2.8873,2.8902,2.8902,2.8893,2.8872,2.8861,2.8854,2.8882,2.8882,2.8882,0,2.8505,2.8536,2.8563,2.8609,2.8619,2.8633,2.8667,2.8687,2.872,2.8737,2.876,2.8784,2.8804,2.8817,2.8845,2.8844,2.8858,2.8873,2.8874,2.8878,2.8891,2.8876,2.8853,2.8852,2.8881,2.8881,2.8881,0,2.8471,2.8518,2.8541,2.8558,2.8611,2.862,2.8642,2.8677,2.8695,2.8723,2.8735,2.8764,2.878,2.8801,2.8833,2.8839,2.8858,2.8873,2.8872,2.8871,2.8875,2.8874,2.8854,2.8882,2.8882,2.8882,2.8882,0,2.8456,2.8472,2.8527,2.8541,2.8559,2.8598,2.8614,2.8639,2.867,2.8688,2.872,2.8736,2.8777,2.8798,2.8822,2.8842,2.8849,2.8863,2.8869,2.886,2.8859,2.887,2.8872,2.8882,2.8882,2.8882,2.8882,0,2.8421,2.8458,2.8486,2.8535,2.8548,2.8559,2.86,2.8615,2.8642,2.8665,2.8672,2.8714,2.874,2.8774,2.881,2.8827,2.8844,2.8853,2.8833,2.8837,2.8835,2.8835,2.8822,2.8823,2.8849,2.8849,2.8849,0,2.8409,2.8423,2.8474,2.849,2.8512,2.8537,2.8556,2.8595,2.8613,2.8653,2.8663,2.8692,2.8718,2.8758,2.879,2.8818,2.8829,2.8823,2.8833,2.8825,2.883,2.8829,2.8831,2.882,2.8819,2.8819,2.8819,0,2.8386,2.8404,2.8432,2.8466,2.8489,2.8517,2.8546,2.8557,2.8601,2.8619,2.8649,2.8669,2.8707,2.8736,2.8768,2.879,2.8811,2.8815,2.8817,2.8808,2.8797,2.8804,2.8827,2.8815,2.8816,2.8816,2.8816,2.8816,2.8363,2.8377,2.8416,2.8446,2.8472,2.8499,2.8516,2.8546,2.8571,2.8608,2.8628,2.8656,2.869,2.8736,2.8757,2.8778,2.8787,2.8788,2.8789,2.8789,2.8787,2.8793,2.8784,2.8784,2.8785,2.8785,2.8785,0,2.8342,2.8369,2.8396,2.8438,2.8461,2.8482,2.8515,2.8533,2.8558,2.8589,2.8614,2.8648,2.8676,2.8711,2.8741,2.8752,2.8763,2.8759,2.8758,2.8763,2.8777,2.8774,2.875,2.875,2.875,2.875,2.875,2.875,2.8333,2.8359,2.8382,2.842,2.8447,2.8477,2.8495,2.852,2.8545,2.8581,2.8606,2.8629,2.8662,2.8695,2.8721,2.8731,2.8741,2.8734,2.8746,2.8759,2.8762,2.8765,2.8762,2.8735,2.8735,2.873,2.873,2.873]}]]